Weather in Bogra

Bangladesh     24°50′51″N   89°21′53″E
temp.,
°C
wind,
m/s
gust,
m/s
humid.,
%
clouds,
%
prec.,
mm/h
press.,
hPa
HPBL,
m
13 april, tue
tue1300:00+27ssw410400 0.0 1009173
03:00+26sw37410 0.0 1008109
06:00+24sse23510 0.0 100940
09:00+33ssw34340 0.0 1011766
12:00+40ssw36145 0.0 10094675
15:00+41wnw36986 0.0 10045020
18:00+35ene35190 0.0 100491
21:00+31se22200 0.0 100612
14 april, wed
wed1400:00+29sw614290 0.0 1006277
03:00+27ssw614520 0.0 1005344
06:00+24ssw39695 0.0 1007207
09:00+34sw34341 0.0 1010975
12:00+41sw47131 0.0 10073681
15:00+43w46644 0.0 10025609
18:00+36ne46153 0.0 1002105
21:00+32e441719 0.0 100441
15 april, thu
thu1500:00+29ssw714460 0.0 1004385
03:00+26ssw496330 0.0 1004224
06:00+25se487469 0.0 1005202
09:00+34s563890 0.0 10081109
12:00+40s5619100 0.0 10052237
15:00+43ssw5711100 0.0 10014965
18:00+38ssw5913100 0.0 1001230
21:00+32s81728100 0.0 1004551
16 april, fri
fri1600:00+30s51155100 0.0 1004392
03:00+27se4769100 0.0 1004181
06:00+27sse4876100 0.0 1006251
09:00+35s333369 0.0 1008943
12:00+40wnw261499 0.0 10063695
15:00+40wsw651094 0.0 10023143
18:00+34sse111423100 0.0 1003625
21:00+27se5104547 0.0 1006353
17 april, sat
sat1700:00+24se711565 0.0 1008313
03:00+23e48679 0.0 1008318
06:00+23ese496838 0.0 1010274
09:00+30se66525 0.0 10111013
12:00+36se56352 0.0 10092042
15:00+40ssw46243 0.0 10043604
18:00+37ne46270 0.0 1001194
21:00+24s51078100 3.1 1008270